Other Public Products
Issued by NWS Grand Forks, ND

Home | Current Version | Previous Version | Text Only | Print | Product List | Glossary On
Versions: 1 2 3 4 5 6 7 8 9 10 11 12 13 14 15 16 17 18 19 20 21 22 23 24 25 26 27 28 29 30 31 32 33 34 35 36 37 38 39 40 41 42 43 44 45 46 47 48 49 50
000
FPUS83 KFGF 202110
OPUFGF
PRAIRIE TO PINES WEATHER ROUNDUP
NATIONAL WEATHER SERVICE EASTERN NORTH DAKOTA/GRAND FORKS ND
400 PM CDT WED AUG 20 2014

 **SATELLITE DATA USED TO AUGMENT SKY COVER AT AUTOMATED STATIONS**
 *****  WEATHER ACROSS EASTERN NORTH DAKOTA  *****

CITY           SKY/WX    TMP DP  RH WIND       PRES   REMARKS
GRAND FORKS    PTSUNNY   83  67  58 SE14      29.77F
GRAND FORKS AF PTSUNNY   83  69  62 SE14      29.78F
GRAND CITY NWS   N/A     77 N/A N/A S6          N/A
BUXTON         NOT AVBL
DEVILS LAKE    CLOUDY    82  64  54 S14       29.74F
FARGO          PTSUNNY   83  67  58 SE13      29.78F
WAHPETON ARPT  MOCLDY    79  63  57 SE9G16    29.79F
$$

 *****  WEATHER ACROSS CENTRAL AND WESTERN NORTH DAKOTA  *****

CITY           SKY/WX    TMP DP  RH WIND       PRES   REMARKS
JAMESTOWN      CLOUDY    80  67  64 SE14G22   29.75F
BISMARCK       LGT RAIN  78  69  73 CALM      29.72S
MINOT          CLOUDY    80  61  52 S14       29.71S
MINOT AFB      CLOUDY    84  63  49 S15       29.70S
GARRISON         N/A     76  66  71 E8        29.73F
WILLISTON      LGT RAIN  72  66  81 SE5       29.73F
DICKINSON      TSTM      69  66  90 NE10      29.75R
HETTINGER      TSTM      75  66  73 SE9       29.70F
$$

 *****  OTHER OBSERVATIONS NORTHEAST NORTH DAKOTA  *****

CITY           SKY/WX    TMP DP  RH WIND       PRES   REMARKS
WALHALLA       FAIR      82  68  61 S12G17    29.77S
LANGDON        MOCLDY    82  66  57 S13G18    29.79R
CAVALIER       MOCLDY    82  66  57 SE10G17   29.77S
GRAFTON        FAIR      84  66  54 S13       29.77F
CANDO          FAIR      81  66  61 S10       29.77F
FORT TOTTEN    NOT AVBL
ROLLA          FAIR      64  64 100 SW10G16   29.80F THUNDER
RUGBY          NOT AVBL
 ***** THE ABOVE OBSERVATIONS ARE NON NWS ARE NOT QUALITY
        CONTROLLED AND MAY MIS-REPORT RAIN FOR SNOW...
$$

 *****  OTHER OBSERVATIONS SOUTHEAST NORTH DAKOTA *****

CITY           SKY/WX    TMP DP  RH WIND       PRES   REMARKS
COOPERSTOWN    NOT AVBL
VALLEY CITY    FAIR      82  66  57 S16       29.78S
OAKES          NOT AVBL
GWINNER        CLEAR     82  68  61 SE14      29.78F
SHEYENNE NWR     N/A     83  67  58 SE13      29.95
BUFFALO        NOT AVBL
WYNDMERE       NOT AVBL
 ***** THE ABOVE OBSERVATIONS ARE NON NWS ARE NOT QUALITY
       CONTROLLED AND MAY MIS-REPORT RAIN FOR SNOW...
$$

  *****  WEATHER ACROSS NORTHERN MINNESOTA  *****

CITY           SKY/WX    TMP DP  RH WIND       PRES   REMARKS
FLAG ISLAND    MOSUNNY   75  63  64 S7        29.86R
WARROAD        SUNNY     79  66  65 SE10      29.84S
ROSEAU         MOSUNNY   81  64  57 S10       29.82F
HALLOCK        PTSUNNY   82  64  54 S13       29.78S
THF RVR FALLS  MOSUNNY   81  64  57 SE7       29.82S
HALSTAD          N/A     82  64  55 SE8         N/A
FOSSTON        PTSUNNY   81  64  57 S7        29.84S
BAUDETTE       PTSUNNY   78  62  57 E7        29.86F
WASKISH        MOSUNNY   79  64  61 CALM      29.86F
CROOKSTON      PTSUNNY   82  63  51 S13       29.80F
$$
  *****  WEATHER ACROSS CENTRAL AND WEST MINNESOTA  *****

CITY           SKY/WX    TMP DP  RH WIND       PRES   REMARKS
BEMIDJI        PTSUNNY   78  63  61 SE8       29.86S
PARK RAPIDS    PTSUNNY   78  62  57 SE13      29.86S
WADENA         CLOUDY    79  64  61 SE12      29.85S
DETROIT LAKES  CLOUDY    79  64  61 SE10      29.85S
MOORHEAD       PTSUNNY   82  72  69 SE9       29.79F
FERGUS FALLS   PTSUNNY   81  63  54 SE9       29.80F
ELBOW LAKE     FAIR      79  66  64 SE13      29.81F
MORRIS MN      MOSUNNY   82  68  61 SE9       29.80S
STAPLES        CLOUDY    79  64  61 SE6       29.86F
WHEATON        MOSUNNY   79  68  69 SE8       29.79F
$$
  *****  WEATHER ELSEWHERE ACROSS MINNESOTA  *****

CITY           SKY/WX    TMP DP  RH WIND       PRES   REMARKS
DULUTH         PTSUNNY   70  57  63 S5        29.91F
INTRNTL FALLS  PTSUNNY   75  58  55 VRB7      29.89R
ELY            MOSUNNY   72  57  60 CALM      29.91S
CLOQUET        CLOUDY    70  57  64 SE5       29.91S
BRAINERD       PTSUNNY   75  63  66 VRB5      29.88S
HIBBING        CLOUDY    73  59  61 SW6       29.90R
ALEXANDRIA     PTSUNNY   79  66  64 E13       29.85F
SAINT CLOUD    PTSUNNY   81  64  56 E5        29.85F
MINNEAPOLIS    CLOUDY    82  65  56 SE9       29.85S
$$

  *****  WEATHER ACROSS SOUTH DAKOTA  *****

CITY           SKY/WX    TMP DP  RH WIND       PRES   REMARKS
SIOUX FALLS    PTSUNNY   80  68  66 S14       29.78F
BROOKINGS      NOT AVBL
WATERTOWN      CLOUDY    82  65  56 SE12      29.78S
HURON          CLOUDY    83  68  60 SE13      29.70F
SISSETON         N/A     82  67  60 S12G21    29.76F
ABERDEEN       CLOUDY    82  67  60 SE13      29.73F
MITCHELL       CLOUDY    81  69  67 S15G29    29.72F
PIERRE         PTSUNNY   83  71  67 E13       29.67F
MOBRIDGE       CLOUDY    80  70  71 SE16      29.68S
RAPID CITY     PTSUNNY   85  60  42 SE6       29.72F
$$

  *****  SOME WEATHER IN NEARBY STATES *****

CITY           SKY/WX    TMP DP  RH WIND       PRES   REMARKS
GLASGOW MT     PTSUNNY   76  57  51 W8        29.77S
GREAT FALLS MT LGT RAIN  67  50  54 CALM      29.83F
CHEYENNE WY    PTSUNNY   83  43  24 W20G30    29.98F
SCOTTSBLUFF NE MOSUNNY   90  49  24 W18G24    29.82F
OMAHA NE       MOSUNNY   90  73  57 SE20      29.79F HX  98
DES MOINES IA  CLOUDY    82  70  66 S9        29.85F
DAVENPORT IA   CLOUDY    76  70  82 S15G21    29.90F
CHICAGO IL     PTSUNNY   85  63  47 W13       29.86F
EAU CLAIRE WI  MOSUNNY   78  62  57 VRB3      29.88S
LA CROSSE WI   SUNNY     83  66  56 N3        29.85S
$$

  *****  SOME NATIONAL WEATHER *****

CITY           SKY/WX    TMP DP  RH WIND       PRES   REMARKS
LA GUARDIA NY  MOSUNNY   81  55  40 S8        29.98R
RALEIGH NC     MOSUNNY   89  71  55 SW5       29.97S HX  95
ATLANTA GA     CLOUDY    76  70  82 NW10      30.08R
NEW ORLEANS LA CLOUDY    85  73  67 S3        30.05S HX  91
OKLAHOMA CITY  MOSUNNY   94  65  38 S20G25    29.88F HX  96
ALBUQUERQUE NM MOSUNNY   87  43  21 NW14      30.06F
SALT LAKE CITY MOSUNNY   81  48  31 S16       29.96F
LOS ANGELES CA MOSUNNY   77  59  53 W14       29.93S
BOISE ID       MOSUNNY   83  48  29 N8        29.85F
SEATTLE WA     PTSUNNY   66  51  58 SW12      30.00S
$$

*** WEATHER ACROSS MANITOBA...SASKATCHEWAN AND ONTARIO ***
                ***ONTARIO***

CITY           SKY/WX    TMP DP  RH WIND       PRES   REMARKS
GERALDTON      CLOUDY    64  59  82 E6        29.94R
THUNDER BAY    PTSUNNY   70  61  73 E9        29.91R
SIOUX LOOKOUT  MOSUNNY   75  61  60 VRB7      29.89S
TORONTO        PTSUNNY   75  66  73 SE9       29.90R
BIG TROUT LK   SUNNY     79  52  38 SE8       29.90S
PICKLE LAKE    MOSUNNY   79  50  36 SE10G17   29.91S
DRYDEN         CLOUDY    75  61  60 E5        29.89F
KENORA         PTSUNNY   77  59  53 S8        29.88S
$$
                *** MANITOBA***

CITY           SKY/WX    TMP DP  RH WIND       PRES   REMARKS
BRANDON        LGT RAIN  70  63  78 S12       29.72F
DAUPHIN        MOSUNNY   79  64  61 S5        29.69S
ISLAND LAKE    MOSUNNY   84  59  42 SE9       29.80S
PILOT MOUND      N/A     68  64  88 E7          N/A
THE PAS        MOSUNNY   79  66  65 S12       29.61F SMOKE
THOMPSON       PTSUNNY   82  63  51 S15       29.68F
WINNIPEG       PTSUNNY   84  66  54 S14G20    29.78S
LYNN LAKE      LGT RAIN  57  55  94 MISG      29.70F FOG
CHURCHILL      PTSUNNY   55  52  88 NW3       29.83S
GILLAM         PTSUNNY   82  61  47 S6        29.75S
$$
                ***SASKATCHEWAN***

CITY           SKY/WX    TMP DP  RH WIND       PRES   REMARKS
ESTEVAN        CLOUDY    75  64  69 SE6       29.75R
KINDERSLEY     PTSUNNY   73  52  46 NW12G18   29.80S
LLOYDMINSTER   PTSUNNY   66  52  59 NW15G21   29.83R
PRINCE ALBERT  LGT RAIN  64  63  94 NW6       29.71R FOG
REGINA         MOSUNNY   70  66  88 W3        29.72F


USA.gov is the U.S. government's official web portal to all federal, state and local government web resources and services.